TimeMDT,TemperatureF,Dew PointF,Humidity,Sea Level PressureIn,VisibilityMPH,Wind Direction,Wind SpeedMPH,Gust SpeedMPH,PrecipitationIn,Events,Conditions,WindDirDegrees,DateUTC
12:55 AM,64.9,57.0,75,30.00,10.0,West,6.9,-,N/A,,Clear,260,2013-07-24 06:55:00
1:55 AM,64.0,57.0,78,30.00,10.0,Calm,Calm,-,N/A,,Clear,0,2013-07-24 07:55:00
2:55 AM,62.1,57.0,84,30.04,10.0,NE,10.4,-,N/A,,Scattered Clouds,50,2013-07-24 08:55:00
3:55 AM,63.0,57.0,81,30.02,10.0,SE,6.9,-,N/A,,Clear,130,2013-07-24 09:55:00
4:55 AM,63.0,57.0,81,30.02,10.0,SSE,6.9,-,N/A,,Clear,160,2013-07-24 10:55:00
5:55 AM,62.1,57.0,84,30.04,10.0,South,8.1,-,N/A,,Clear,180,2013-07-24 11:55:00
6:55 AM,66.0,57.9,75,30.04,10.0,West,5.8,-,N/A,,Clear,270,2013-07-24 12:55:00
7:55 AM,68.0,59.0,73,30.05,10.0,West,9.2,-,N/A,,Clear,270,2013-07-24 13:55:00
8:55 AM,73.0,60.1,64,30.04,10.0,Variable,4.6,-,N/A,,Clear,0,2013-07-24 14:55:00
9:55 AM,79.0,60.1,52,30.04,10.0,Variable,5.8,-,N/A,,Clear,0,2013-07-24 15:55:00
10:55 AM,82.0,60.1,47,30.03,10.0,North,8.1,-,N/A,,Clear,10,2013-07-24 16:55:00
11:55 AM,84.0,57.0,40,30.02,10.0,NNE,9.2,-,N/A,,Clear,30,2013-07-24 17:55:00
12:55 PM,84.9,57.0,38,30.01,10.0,East,8.1,-,N/A,,Partly Cloudy,90,2013-07-24 18:55:00
1:55 PM,84.0,57.0,40,30.00,10.0,NE,9.2,-,N/A,,Scattered Clouds,50,2013-07-24 19:55:00
2:55 PM,86.0,55.9,36,29.97,10.0,East,13.8,18.4,N/A,,Scattered Clouds,80,2013-07-24 20:55:00
3:55 PM,87.1,55.0,33,29.96,10.0,East,11.5,17.3,N/A,,Clear,90,2013-07-24 21:55:00
4:55 PM,87.1,53.1,31,29.96,10.0,ENE,10.4,-,N/A,,Clear,70,2013-07-24 22:55:00
5:55 PM,86.0,53.1,32,29.95,10.0,East,8.1,-,N/A,,Clear,90,2013-07-24 23:55:00
6:55 PM,84.0,51.1,32,29.94,10.0,East,11.5,-,N/A,,Clear,80,2013-07-25 00:55:00
7:55 PM,79.0,52.0,39,29.95,10.0,East,6.9,-,N/A,,Clear,80,2013-07-25 01:55:00
8:55 PM,73.0,53.1,49,29.97,10.0,East,8.1,-,N/A,,Clear,80,2013-07-25 02:55:00
9:55 PM,68.0,55.0,63,29.96,10.0,East,8.1,-,N/A,,Clear,80,2013-07-25 03:55:00
10:55 PM,71.1,54.0,55,29.95,10.0,ESE,5.8,-,N/A,,Clear,110,2013-07-25 04:55:00
11:55 PM,70.0,57.9,65,29.95,10.0,SSE,8.1,-,N/A,,Clear,160,2013-07-25 05:55:00